Lapse_Rate
7.0 6.5 6.5 6.5 6.5 6.5 6.5 6.5 6.5 6.5 6.5 6.5 6.5 6.5 6.5 7.3 7.5 7.5 7.7 7.8 7.8 7.9 7.9 4.8 3.5 2.2 1.5 1.1 0.6 0.3 0.5 1.7 7.1 7.4 6.7 6.5 6.1 5.8 5.5 5.1 4.6 5.1 5.3 5.2
6.5 6.5 6.5 6.5 6.5 6.5 6.5 6.5 6.5 6.5 6.5 6.5 6.5 6.5 6.5 7.0 7.2 7.6 7.6 7.8 7.8 7.9 7.8 5.6 3.9 2.4 1.3 0.6 0.3 0.2 0.6 0.6 1.7 7.8 9.0 7.5 6.7 6.0 6.1 5.1 4.8 4.9 5.1 5.0
6.5 6.5 6.5 6.5 6.5 6.5 6.5 6.5 6.5 6.5 6.5 6.5 6.5 6.5 6.5 6.7 7.4 7.7 7.8 7.9 8.0 8.0 8.0 7.5 5.3 4.0 2.3 0.8 0.3 0.3 0.3 -0.0 0.5 1.7 6.7 7.2 6.3 5.4 5.4 5.1 5.2 4.5 4.7 4.7
6.5 6.6 6.5 6.5 6.5 6.5 6.5 6.5 6.5 6.5 6.5 6.5 6.5 6.5 6.5 6.5 6.5 7.0 7.6 8.0 8.0 8.0 8.2 8.0 6.4 4.8 3.6 2.5 1.3 0.5 0.4 -0.4 -0.4 0.0 1.2 5.5 8.7 8.8 8.8 6.9 6.2 5.7 4.9 5.1
6.5 6.5 6.5 6.5 6.5 6.5 6.5 6.5 6.5 6.5 6.5 6.5 6.5 6.5 6.5 6.5 6.5 6.5 7.2 7.9 8.1 8.3 8.3 8.1 7.5 5.8 4.6 2.9 2.2 1.9 1.2 -0.2 -0.8 -0.7 -0.4 0.3 2.4 8.2 7.6 7.0 6.4 6.4 5.7 5.1
6.5 7.0 6.5 6.5 6.5 6.5 6.5 6.5 6.5 6.5 6.5 6.5 6.5 6.5 6.5 6.5 6.5 6.5 7.2 7.8 8.1 8.3 8.5 8.6 8.4 6.6 4.6 3.2 1.8 1.7 1.4 1.0 0.2 -0.5 -0.7 -0.9 -0.5 0.8 5.2 6.3 6.8 7.0 6.4 6.0
6.5 6.5 6.5 6.7 6.5 6.5 6.5 6.5 6.5 6.5 6.5 6.5 6.5 6.5 6.5 6.5 6.5 6.8 7.0 7.6 8.2 8.4 8.5 8.5 8.6 8.5 6.5 4.1 2.6 2.0 1.4 1.1 1.3 0.7 -0.1 -0.9 -1.1 -0.4 -0.1 0.6 2.7 4.0 5.6 6.4
6.5 6.5 6.5 6.5 6.5 6.5 6.5 6.5 6.5 6.5 6.5 6.5 6.5 6.5 6.5 6.5 7.2 7.5 7.8 7.9 8.2 8.4 8.6 8.6 8.7 8.8 8.5 7.5 5.9 3.8 2.7 1.7 1.1 1.3 1.4 1.1 0.1 -0.5 -0.4 -0.3 -0.3 0.6 1.9 2.4
6.5 6.5 6.5 6.5 6.5 6.5 6.5 6.5 6.5 6.5 6.5 6.5 6.5 6.5 6.5 6.5 6.6 7.1 7.4 7.7 7.9 8.2 8.5 8.6 8.8 8.9 8.9 8.1 6.8 6.0 4.8 3.5 2.6 2.0 1.3 1.2 1.3 0.7 -0.1 -0.0 -0.1 -0.6 -0.3 0.3
6.5 6.5 6.5 6.5 6.6 6.6 6.5 6.5 6.5 6.5 6.5 6.5 6.5 6.5 6.5 6.5 6.5 6.5 7.0 7.4 7.9 8.3 8.5 8.7 8.8 8.8 8.8 8.8 7.8 6.3 5.8 5.1 4.8 3.5 2.7 2.0 1.1 1.0 1.2 1.3 0.4 -0.0 0.1 -0.4
6.5 6.5 6.5 6.5 6.5 6.5 6.5 6.5 6.5 6.5 6.5 6.5 6.5 6.5 6.5 6.5 6.5 6.5 7.0 7.6 7.9 8.2 8.4 8.6 8.9 9.1 9.2 8.3 7.0 6.6 6.0 5.6 4.6 4.3 4.2 3.4 2.3 1.6 1.0 0.7 0.7 0.7 0.9 0.8
6.5 6.5 6.5 6.5 6.5 6.5 6.5 6.5 6.5 6.5 6.5 6.5 6.5 6.5 6.5 6.6 6.9 7.1 7.2 7.7 8.1 8.4 8.5 8.6 8.7 8.6 8.2 7.7 6.5 5.9 5.5 5.2 5.3 5.2 4.8 4.4 4.0 3.5 2.8 1.9 1.3 0.7 0.9 1.0
6.5 6.5 6.5 6.5 6.5 6.5 6.5 6.5 6.5 6.5 6.5 6.5 6.5 6.5 6.7 6.9 7.0 7.3 7.4 7.8 8.1 8.2 8.2 7.6 6.5 5.9 5.3 5.0 4.9 4.8 4.9 4.6 4.7 4.7 4.8 4.4 4.0 3.6 3.4 3.1 2.8 2.2 1.6 1.6
6.8 6.5 6.5 6.5 6.5 6.5 6.5 6.5 6.5 6.5 6.5 6.5 6.5 6.5 6.5 6.5 6.5 7.2 7.5 7.8 7.9 7.9 7.1 6.4 5.7 5.3 4.5 4.3 4.0 3.6 3.6 3.8 4.0 4.1 4.3 4.3 4.2 3.7 3.4 3.5 3.2 2.7 2.2 2.2
6.5 6.5 6.5 6.5 6.5 6.5 6.5 6.5 6.5 6.5 6.5 6.5 6.5 6.5 6.5 6.5 6.6 7.1 7.5 7.7 7.7 7.6 6.7 6.0 5.6 5.2 4.6 3.9 3.5 3.2 3.2 3.5 3.7 3.6 3.8 4.2 4.2 4.3 4.0 3.4 3.3 2.8 2.7 2.6
6.5 6.5 6.5 6.5 6.5 6.5 6.5 6.5 6.5 6.5 6.5 6.5 6.5 6.5 6.7 7.1 7.4 7.3 7.4 7.5 7.5 7.6 6.8 6.1 5.7 5.3 4.7 4.5 4.6 4.2 3.7 3.5 3.8 3.6 3.7 4.4 4.1 3.7 3.7 3.7 3.5 3.3 3.4 3.6
6.5 6.5 6.5 6.5 6.5 6.5 6.5 6.5 6.5 6.5 6.5 6.5 6.5 6.5 6.9 6.7 7.0 7.2 7.2 7.3 7.4 7.5 6.6 6.1 5.9 5.6 5.2 5.1 5.3 4.6 4.0 4.1 4.2 4.1 4.3 4.5 4.1 3.7 4.0 4.0 4.0 4.0 3.5 3.4
6.5 6.5 6.5 6.5 6.5 6.5 6.5 6.5 6.5 6.5 6.5 6.5 6.5 6.5 6.9 7.0 6.9 6.4 5.2 7.1 5.9 5.8 5.6 5.2 5.2 4.5 4.8 5.3 4.7 4.6 4.1 4.2 4.4 4.4 4.7 4.8 4.5 4.3 4.3 4.3 4.5 4.5 5.0 4.8
6.6 6.5 6.5 6.5 6.5 6.5 6.5 6.5 6.5 6.5 6.5 6.6 6.5 6.8 7.1 6.8 6.5 6.9 5.0 4.6 6.4 6.0 5.6 5.5 5.2 5.1 4.7 4.1 4.6 4.8 4.7 5.1 4.8 5.2 5.8 5.5 5.6 5.9 5.8 5.3 5.0 5.3 5.8 5.8
6.5 6.5 6.5 6.5 6.5 6.5 6.5 6.5 7.2 6.9 6.5 6.9 7.0 6.9 6.9 7.0 6.5 6.6 6.1 6.3 5.9 5.7 5.7 6.1 6.3 6.3 5.6 5.3 5.8 6.1 6.1 6.5 7.2 8.0 7.5 7.3 7.5 7.4 7.2 7.0 7.4 7.5 7.2 7.2
6.5 6.5 6.5 6.5 6.5 6.5 6.5 6.9 6.3 6.5 6.5 7.1 7.3 7.2 7.1 6.8 7.4 7.7 6.2 5.5 6.0 7.4 7.6 7.7 7.2 7.3 8.0 8.6 8.9 8.1 8.7 8.9 9.4 9.4 9.2 9.2 8.3 7.8 7.9 8.7 9.4 9.4 9.2 9.6
6.5 6.5 6.5 6.5 6.5 6.5 7.0 6.7 6.5 6.7 6.2 6.3 6.5 6.8 7.3 7.6 6.9 6.2 6.9 7.2 7.2 7.3 7.4 8.1 8.7 8.8 9.1 9.3 9.2 9.0 9.1 9.6 9.5 9.6 9.6 9.6 9.5 9.4 9.2 9.2 9.3 9.6 9.6 9.4
6.5 6.5 6.5 6.5 6.5 7.0 6.0 6.8 4.5 5.4 5.6 7.2 5.3 6.3 6.1 5.8 6.4 7.4 8.0 8.2 8.4 8.5 8.4 8.9 9.0 8.9 9.3 9.5 9.5 9.1 9.4 9.6 9.6 9.6 9.6 9.6 9.8 9.8 9.8 9.6 9.6 9.5 9.5 9.3
6.5 7.0 6.5 6.5 6.6 6.8 5.5 3.6 4.1 3.7 4.4 4.6 5.2 4.6 5.0 5.8 6.7 7.9 8.4 8.4 8.5 8.7 8.7 9.1 9.0 8.9 9.1 9.5 9.5 9.5 9.6 9.8 9.6 9.4 9.5 9.6 9.5 9.6 9.7 9.8 9.8 9.5 9.4 9.2
6.7 6.8 6.5 6.5 6.6 5.8 5.1 4.4 4.8 2.8 1.9 2.6 5.0 5.3 6.0 8.1 8.2 8.3 8.3 8.5 8.7 8.8 9.0 9.1 9.1 9.0 9.1 9.4 9.4 9.6 9.5 9.8 9.5 9.5 9.5 9.5 9.6 9.5 9.5 9.6 9.6 9.5 9.5 9.7
7.1 6.5 6.5 6.5 5.8 6.5 6.6 4.2 2.4 2.0 4.4 5.3 6.1 7.0 8.4 8.5 8.3 8.5 8.3 8.5 8.7 8.8 9.0 9.0 9.0 9.1 9.1 9.2 9.3 9.6 9.7 9.7 9.5 9.3 9.4 9.5 9.5 9.4 9.4 9.4 9.3 9.8 10.0 10.0
Wind_Speed
4 8 11 13 13 2 4 2 4 2 3 4 6 11 12 12 17 17 18 18 18 19 18 20 21 22 23 22 22 22 21 24 8 5 5 6 6 5 5 6 6 6 6 6
5 14 9 4 8 8 7 8 11 4 4 8 8 10 11 14 17 17 17 18 19 19 21 22 23 23 21 21 21 22 21 20 18 9 5 5 4 5 5 6 7 7 7 7
10 2 5 8 7 10 10 12 9 6 5 3 5 8 6 11 15 15 17 15 17 18 20 21 22 22 21 21 21 20 20 19 18 19 8 4 2 2 3 4 5 6 7 7
7 4 5 7 6 10 10 11 11 7 6 5 10 3 6 9 12 15 16 16 16 18 18 19 21 22 22 20 18 19 19 20 18 20 16 16 6 6 3 4 4 4 7 7
3 6 7 6 5 11 0 3 7 5 7 3 10 5 6 9 6 12 14 15 15 16 17 19 19 19 20 19 18 17 18 20 20 19 18 13 15 8 5 4 5 4 4 5
1 1 1 1 2 7 9 6 5 3 2 6 11 12 6 1 5 8 11 13 15 16 16 16 17 17 18 18 18 18 20 19 20 19 19 18 17 16 12 11 7 4 3 3
3 2 1 1 4 4 6 7 3 4 5 5 1 8 8 7 8 8 9 12 14 15 16 17 19 19 19 20 21 18 19 19 19 19 18 18 17 16 16 14 11 11 7 5
5 4 0 4 2 1 10 8 4 5 4 2 4 5 6 8 8 8 9 9 12 14 15 16 17 17 18 19 19 19 20 19 19 18 17 16 17 10 10 13 11 10 9 9
3 4 2 4 3 3 5 5 2 3 1 4 4 5 5 6 5 7 8 10 12 13 14 16 16 16 16 17 18 18 18 17 18 17 15 15 15 15 13 14 13 10 11 12
2 2 3 4 1 8 3 2 3 3 4 8 5 5 5 7 3 5 8 10 11 12 13 14 14 15 15 15 15 17 17 17 17 16 14 13 14 14 12 11 14 14 13 19
1 2 3 1 8 5 3 1 2 2 2 5 6 4 3 5 4 4 6 8 10 13 13 13 13 13 14 14 16 16 16 17 16 16 16 14 13 13 13 12 12 13 16 17
3 2 2 3 6 6 3 3 2 4 4 0 3 3 4 5 4 4 4 7 9 11 13 14 14 14 14 14 15 15 15 16 15 15 14 14 15 15 14 14 14 18 13 18
1 0 3 2 2 2 4 4 2 3 2 4 4 2 3 3 3 4 5 7 8 10 12 12 13 13 14 14 14 14 14 15 14 15 14 14 14 14 15 15 14 18 16 15
1 2 2 2 4 3 3 2 3 2 1 2 4 4 5 4 6 7 7 8 7 8 11 12 11 12 12 12 12 12 13 12 13 13 13 12 13 13 13 12 12 13 16 13
2 3 1 2 3 3 3 2 0 4 1 5 3 2 4 2 5 8 8 8 7 9 12 13 12 12 12 12 11 11 11 11 12 11 11 10 11 11 11 12 11 13 12 11
2 3 2 2 5 3 3 2 3 3 2 2 1 1 1 5 5 7 7 6 6 9 13 13 12 13 12 12 12 13 12 12 12 11 11 10 11 11 11 12 11 12 11 11
1 4 2 2 4 4 3 2 2 2 3 3 3 4 5 6 9 10 9 5 4 10 14 13 13 12 12 12 13 12 12 12 11 11 11 11 12 12 12 12 12 11 12 12
5 4 2 3 4 4 4 4 5 2 2 2 1 3 5 6 11 11 5 1 8 14 15 14 12 12 12 12 11 11 11 11 12 12 12 12 13 13 14 14 14 14 12 12
4 2 3 2 3 2 2 1 2 2 1 1 1 5 7 11 10 2 4 2 14 14 12 11 10 12 11 10 10 11 11 11 11 12 12 14 14 14 14 14 15 13 13 12
4 5 0 2 2 3 3 2 1 2 3 3 1 6 9 11 8 4 6 15 15 14 12 11 13 12 11 12 11 12 13 12 12 13 14 14 14 14 15 15 14 13 13 13
2 3 0 2 3 2 1 1 3 3 2 3 3 6 6 5 7 15 17 16 14 13 14 14 13 11 12 12 13 14 13 13 13 14 14 14 14 15 15 14 13 13 13 13
2 1 2 2 2 4 2 3 3 2 1 4 5 5 8 11 14 15 14 14 15 15 15 13 12 12 13 13 12 13 13 13 14 14 14 14 14 12 12 15 14 14 13 13
1 2 1 1 2 3 1 1 4 4 2 4 4 7 9 12 13 14 13 14 14 14 13 13 12 13 12 13 12 14 14 15 14 14 15 14 14 13 13 14 13 12 12 11
2 1 1 2 1 1 2 2 2 0 5 5 7 9 10 11 12 14 14 13 13 13 13 13 14 14 15 13 13 14 15 14 14 15 14 13 13 14 13 11 10 11 10 10
2 1 0 2 2 1 3 4 0 5 5 6 9 9 10 12 14 14 13 14 12 12 12 12 13 14 15 15 15 14 14 14 14 14 13 13 11 12 12 11 10 10 12 12
1 2 1 1 2 2 3 1 3 6 7 9 11 12 12 12 13 14 13 12 12 13 14 13 14 15 15 15 15 15 14 14 14 14 11 10 11 10 10 10 11 17 21 24
Wind_Direction
155 210 214 209 216 212 121 170 225 158 145 316 50 97 58 49 52 48 43 37 32 27 17 18 17 13 10 11 9 8 6 357 330 278 248 238 232 221 219 220 217 217 215 210
172 235 229 199 195 209 223 244 247 261 252 218 142 99 75 60 61 53 44 36 27 20 19 16 14 14 14 10 8 8 8 3 2 333 290 281 243 238 233 217 215 215 214 211
217 61 148 177 173 203 225 232 231 244 149 242 215 170 147 83 67 56 48 41 34 25 16 14 14 15 11 11 7 6 8 7 7 0 332 277 267 237 224 221 222 219 218 216
241 145 159 170 204 205 240 221 238 215 202 242 204 235 141 132 76 48 38 33 27 23 19 17 14 14 12 8 5 8 10 11 11 10 9 351 310 295 305 283 241 225 219 222
146 162 169 193 218 194 247 124 179 188 209 231 199 256 101 176 69 37 35 31 28 24 20 16 12 10 10 9 8 8 9 14 13 15 18 14 5 342 335 325 295 243 233 241
241 358 260 5 103 176 146 112 98 110 192 248 224 220 134 89 15 35 32 31 24 19 19 18 16 11 11 10 10 9 10 13 12 15 17 18 12 3 3 357 342 325 288 256
171 153 93 23 182 180 200 181 198 205 196 246 101 212 64 95 67 54 35 27 22 19 16 13 12 11 11 12 11 9 9 11 9 12 14 15 14 12 10 4 354 348 337 317
191 174 151 3 12 234 195 223 229 244 212 150 155 230 116 106 85 68 51 35 24 19 15 15 13 11 10 10 11 11 10 10 8 10 10 11 14 14 12 6 1 356 353 339
184 167 334 51 339 314 150 204 360 285 202 259 154 110 153 137 90 57 46 30 25 18 14 10 9 11 8 9 9 8 8 10 11 7 6 9 10 10 10 8 6 0 354 348
114 186 29 358 306 62 1 39 181 207 247 245 202 170 118 168 93 44 26 25 21 17 13 10 8 6 6 7 5 6 9 9 7 8 11 8 5 5 4 7 6 2 356 353
37 286 111 247 18 355 352 112 48 334 291 258 271 117 62 108 68 27 24 26 8 4 3 4 4 4 3 3 4 3 4 4 5 6 2 7 6 3 2 3 1 358 355 354
25 47 77 70 93 52 46 52 360 249 185 317 316 144 80 88 50 22 14 5 3 5 359 357 357 358 360 360 360 359 358 359 358 355 359 2 4 3 4 1 357 357 354 352
139 152 138 175 211 176 57 24 37 80 38 228 260 111 125 68 48 43 358 359 355 1 358 355 353 354 352 352 352 353 352 352 350 351 350 353 358 359 358 357 355 355 353 351
108 83 323 326 63 76 129 60 31 34 219 270 254 145 184 16 356 349 344 346 343 353 354 350 349 347 344 344 343 342 342 343 344 343 343 347 349 348 346 344 345 346 348 347
64 124 112 116 52 80 94 112 218 225 50 247 65 57 139 342 300 310 316 326 330 345 349 345 341 339 338 337 336 337 336 337 337 336 336 338 339 339 336 337 337 337 337 336
27 124 120 115 56 115 120 71 98 98 116 139 157 142 79 302 290 296 319 311 320 339 340 335 333 332 333 332 332 331 330 331 333 332 329 330 335 333 331 332 331 332 328 329
94 137 158 158 131 140 185 30 6 86 70 344 270 61 346 336 333 325 321 317 331 333 334 331 327 326 325 326 327 326 325 325 328 326 324 329 332 329 331 329 328 326 323 323
135 114 73 130 169 229 97 35 19 11 72 46 113 7 333 308 295 292 258 188 335 332 328 325 323 318 320 320 313 316 320 321 322 324 325 329 330 325 327 326 325 322 319 317
56 135 108 195 213 92 172 46 9 8 136 133 330 341 333 330 305 152 165 307 325 319 311 308 307 310 312 310 313 318 320 322 323 325 326 326 324 322 322 320 320 316 316 315
62 41 336 159 238 268 62 74 129 169 238 130 356 332 335 335 330 352 347 325 319 316 315 316 315 315 315 320 324 323 321 322 322 325 323 321 319 319 317 315 312 311 310 305
45 28 252 200 245 115 98 53 157 246 62 137 320 313 311 303 295 307 313 313 314 314 316 314 321 311 314 318 320 317 317 317 322 319 317 316 316 315 312 312 311 309 306 302
26 13 97 117 219 231 124 141 236 68 181 303 302 293 293 291 297 301 305 310 317 317 318 318 315 314 316 317 317 313 311 318 317 314 313 311 311 310 309 310 309 306 306 305
173 345 50 306 40 92 127 317 115 75 337 313 284 293 295 295 299 307 309 309 312 313 315 316 313 312 311 313 311 309 312 315 313 312 310 310 310 308 305 300 306 307 304 304
123 20 229 304 144 282 0 139 154 119 317 283 275 292 293 290 301 301 308 309 310 311 312 312 312 307 309 309 309 305 308 309 310 307 308 308 307 304 309 304 297 299 297 299
34 251 359 254 250 303 201 226 251 300 286 271 290 284 287 296 300 304 302 302 303 304 307 303 305 303 303 306 304 305 304 306 303 303 304 304 303 304 305 302 298 294 287 286
199 163 255 21 148 266 268 71 274 287 297 309 305 307 300 302 297 300 297 298 300 301 299 307 303 301 302 302 300 301 301 300 298 298 300 302 303 301 296 305 301 295 298 299